GW3793 Weather Reports


Display with metric or nautical units.
time (UTC)temp
F
wind
direction
speed
MPH
gust
MPH
rain 1hr
in
rain 24hr
in
rain mn
in
humidity
%
barometer
mb
20260901213603 74 182 4.0 13.0 0.00 0.00 0.00 37 1006.3
20260901212703 74 172 6.0 16.0 0.00 0.00 0.00 38 1006.6
20260901212017 75 179 5.0 13.0 0.00 0.00 0.00 37 1006.5
20260901210903 74 186 5.0 19.0 0.00 0.00 0.00 38 1006.2
20260901210004 73 180 5.0 14.0 0.00 0.00 0.00 40 1006.6
20260901205403 73 172 6.0 17.0 0.00 0.00 0.00 42 1006.8
20260901204505 74 170 6.0 22.0 0.00 0.00 0.00 40 1006.8
20260901203603 74 173 6.0 17.0 0.00 0.00 0.00 40 1007.0
20260901202703 75 173 4.0 13.0 0.00 0.00 0.00 38 1006.9
20260901201804 76 178 5.0 14.0 0.00 0.00 0.00 37 1007.1
20260901200903 76 173 5.0 17.0 0.00 0.00 0.00 39 1007.0
20260901200217 76 185 5.0 14.0 0.00 0.00 0.00 39 1006.9
20260901195403 76 181 4.0 15.0 0.00 0.00 0.00 37 1007.1
20260901194503 76 175 5.0 16.0 0.00 0.00 0.00 37 1007.5
20260901193603 76 167 6.0 19.0 0.00 0.00 0.00 36 1007.6
20260901192920 75 172 5.0 12.0 0.00 0.00 0.00 38 1007.7
20260901192018 74 176 6.0 20.0 0.00 0.00 0.00 37 1007.9
20260901190903 74 174 5.0 18.0 0.00 0.00 0.00 36 1007.7
20260901190003 72 174 5.0 17.0 0.00 0.00 0.00 41 1008.0
20260901185406 72 166 5.0 15.0 0.00 0.00 0.00 41 1007.7
20260901184503 72 174 5.0 13.0 0.00 0.00 0.00 40 1008.1
20260901183603 72 172 5.0 17.0 0.00 0.00 0.00 42 1007.9
20260901182918 72 177 5.0 16.0 0.00 0.00 0.00 43 1007.9
20260901181803 72 182 4.0 11.0 0.00 0.00 0.00 43 1008.1
20260901181117 72 174 4.0 9.0 0.00 0.00 0.00 43 1008.0
20260901180003 72 172 6.0 18.0 0.00 0.00 0.00 42 1008.1
20260901175403 72 165 6.0 18.0 0.00 0.00 0.00 43 1007.9
20260901174503 71 171 5.0 17.0 0.00 0.00 0.00 45 1008.3
20260901173603 71 172 5.0 17.0 0.00 0.00 0.00 47 1008.5
20260901172703 70 180 4.0 15.0 0.00 0.00 0.00 48 1008.5
20260901171803 71 178 5.0 13.0 0.00 0.00 0.00 44 1008.4
20260901170903 70 168 5.0 13.0 0.00 0.00 0.00 50 1008.5
20260901170004 69 169 5.0 15.0 0.00 0.00 0.00 51 1008.7
20260901165406 69 173 4.0 12.0 0.00 0.00 0.00 54 1008.7
20260901164503 69 176 5.0 12.0 0.00 0.00 0.00 56 1008.6
20260901163820 67 170 4.0 12.0 0.00 0.00 0.00 58 1009.0
20260901162704 68 168 6.0 14.0 0.00 0.00 0.00 53 1008.8
20260901161803 67 167 5.0 14.0 0.00 0.00 0.00 55 1008.9
20260901160903 67 173 4.0 9.0 0.00 0.00 0.00 57 1009.0
20260901160004 66 171 4.0 9.0 0.00 0.00 0.00 58 1009.4
20260901155403 65 168 3.0 9.0 0.00 0.00 0.00 57 1009.2
20260901154503 64 145 3.0 7.0 0.00 0.00 0.00 60 1008.9
20260901153603 64 140 2.0 6.0 0.00 0.00 0.00 61 1009.2
20260901152703 62 143 3.0 8.0 0.00 0.00 0.00 63 1009.3
20260901151803 62 166 3.0 7.0 0.00 0.00 0.00 66 1009.2
20260901150905 60 168 3.0 8.0 0.00 0.00 0.00 69 1009.3
20260901150003 60 162 3.0 8.0 0.00 0.00 0.00 70 1009.3
20260901145403 59 163 3.0 9.0 0.00 0.00 0.00 70 1009.3
20260901144506 59 163 3.0 7.0 0.00 0.00 0.00 71 1009.3
20260901143603 59 163 3.0 8.0 0.00 0.00 0.00 71 1009.3
20260901142703 58 166 4.0 9.0 0.00 0.00 0.00 71 1009.3
20260901141804 58 164 4.0 6.0 0.00 0.00 0.00 71 1009.2
20260901141117 58 160 4.0 8.0 0.00 0.00 0.00 72 1009.3
20260901140003 57 165 3.0 9.0 0.00 0.00 0.00 74 1009.3
20260901135618 56 165 3.0 8.0 0.00 0.00 0.00 74 1009.3
20260901134717 56 163 3.0 6.0 0.00 0.00 0.00 74 1009.2
20260901133603 56 164 3.0 6.0 0.00 0.00 0.00 73 1009.0
20260901132703 56 161 3.0 5.0 0.00 0.00 0.00 73 1009.4
20260901131805 56 158 3.0 7.0 0.00 0.00 0.00 73 1009.2
20260901130903 56 153 2.0 5.0 0.00 0.00 0.00 74 1009.3
20260901130003 56 153 2.0 5.0 0.00 0.00 0.00 74 1009.3
20260901125618 56 155 2.0 5.0 0.00 0.00 0.00 74 1009.4
20260901124717 56 151 2.0 4.0 0.00 0.00 0.00 75 1009.3
20260901123818 56 149 2.0 6.0 0.00 0.00 0.00 75 1009.4
20260901122703 57 152 1.0 4.0 0.00 0.00 0.00 74 1009.7
20260901122017 57 161 2.0 4.0 0.00 0.00 0.00 73 1009.5
20260901120903 58 154 2.0 10.0 0.00 0.00 0.00 73 1009.6
20260901120004 58 152 2.0 5.0 0.00 0.00 0.00 73 1009.4
20260901115404 58 149 2.0 5.0 0.00 0.00 0.00 73 1009.7
20260901114503 58 150 2.0 5.0 0.00 0.00 0.00 73 1009.7
20260901113818 58 158 2.0 5.0 0.00 0.00 0.00 73 1009.5
20260901112705 58 156 2.0 8.0 0.00 0.00 0.00 73 1009.7
20260901111803 58 147 2.0 8.0 0.00 0.00 0.00 73 1009.6
20260901110903 59 158 3.0 6.0 0.00 0.00 0.00 73 1009.8
20260901110003 58 156 3.0 9.0 0.00 0.00 0.00 73 1009.7
20260901105403 58 159 3.0 9.0 0.00 0.00 0.00 72 1009.8
20260901104503 58 164 3.0 9.0 0.00 0.00 0.00 73 1009.9
20260901103603 58 164 3.0 9.0 0.00 0.00 0.00 74 1010.1
20260901102703 58 161 3.0 8.0 0.00 0.00 0.00 75 1009.6
20260901101804 58 163 3.0 5.0 0.00 0.00 0.00 75 1009.7
20260901100903 58 161 2.0 4.0 0.00 0.00 0.00 74 1009.8
20260901100003 59 159 3.0 5.0 0.00 0.00 0.00 74 1009.8
20260901095403 59 158 2.0 5.0 0.00 0.00 0.00 73 1010.1
20260901094505 59 162 2.0 5.0 0.00 0.00 0.00 73 1009.9
20260901093603 59 166 3.0 9.0 0.00 0.00 0.00 74 1010.1
20260901092917 59 165 3.0 11.0 0.00 0.00 0.00 73 1009.9
20260901091803 58 169 3.0 7.0 0.00 0.00 0.00 73 1009.8
20260901091117 58 168 3.0 6.0 0.00 0.00 0.00 74 1010.1
20260901090003 58 162 3.0 5.0 0.00 0.00 0.00 73 1009.8
20260901085618 58 158 3.0 6.0 0.00 0.00 0.00 73 1009.9
20260901084503 58 153 2.0 6.0 0.00 0.00 0.00 74 1010.2
20260901083603 58 159 2.0 4.0 0.00 0.00 0.00 75 1010.1
20260901082704 58 152 2.0 5.0 0.00 0.00 0.00 75 1010.3
20260901081803 58 158 2.0 5.0 0.00 0.00 0.00 75 1010.3
20260901080903 58 141 2.0 4.0 0.00 0.00 0.00 75 1010.3
20260901080004 57 131 2.0 7.0 0.00 0.00 0.00 75 1010.4
20260901075403 57 115 3.0 6.0 0.00 0.00 0.00 76 1010.4
20260901074503 57 119 3.0 8.0 0.00 0.00 0.00 76 1010.6
20260901073603 57 132 2.0 6.0 0.00 0.00 0.00 75 1010.6
20260901072703 57 136 2.0 6.0 0.00 0.00 0.00 75 1010.2
20260901071804 57 144 2.0 5.0 0.00 0.00 0.00 76 1010.4
20260901070903 57 154 2.0 5.0 0.00 0.00 0.00 75 1010.6
20260901070004 57 154 2.0 6.0 0.00 0.00 0.00 76 1010.6
20260901065403 57 146 2.0 5.0 0.00 0.00 0.00 76 1010.7
20260901064503 57 128 3.0 6.0 0.00 0.00 0.00 76 1010.8
20260901063604 57 119 3.0 7.0 0.00 0.00 0.00 77 1010.7
20260901062704 57 116 3.0 8.0 0.00 0.00 0.00 78 1010.8
20260901062017 56 118 3.0 7.0 0.00 0.00 0.00 78 1011.0
20260901060903 56 136 2.0 4.0 0.00 0.00 0.00 77 1011.3
20260901060003 56 125 2.0 5.0 0.00 0.00 0.00 76 1010.7
20260901055403 56 138 2.0 6.0 0.00 0.00 0.00 76 1011.2
20260901054720 57 135 2.0 6.0 0.00 0.00 0.00 76 1011.0
20260901053603 57 118 3.0 6.0 0.00 0.00 0.00 76 1011.2
20260901052703 57 124 2.0 5.0 0.00 0.00 0.00 76 1011.1
20260901051804 57 128 2.0 6.0 0.00 0.00 0.00 76 1011.2
20260901050904 57 131 2.0 5.0 0.00 0.00 0.00 76 1011.3
20260901050003 56 117 3.0 13.0 0.00 0.00 0.00 76 1011.4
20260901045403 56 116 2.0 13.0 0.00 0.00 0.00 77 1011.4
20260901044718 56 130 1.0 4.0 0.00 0.00 0.00 76 1011.3
20260901043603 57 158 1.0 4.0 0.00 0.00 0.00 74 1011.5
20260901042703 58 163 2.0 6.0 0.00 0.00 0.00 74 1011.7
20260901041803 58 166 3.0 8.0 0.00 0.00 0.00 74 1011.6
20260901040903 58 162 2.0 7.0 0.00 0.00 0.00 74 1011.6
20260901040003 58 149 2.0 5.0 0.00 0.00 0.00 73 1011.6
20260901035403 58 156 2.0 5.0 0.00 0.00 0.00 73 1011.7
20260901034503 59 162 2.0 7.0 0.00 0.00 0.00 71 1011.9
20260901033605 60 163 3.0 9.0 0.00 0.00 0.00 71 1011.6
20260901032703 60 167 3.0 7.0 0.00 0.00 0.00 70 1011.5
20260901031804 60 171 4.0 10.0 0.00 0.00 0.00 69 1011.6
20260901030903 60 165 4.0 10.0 0.00 0.00 0.00 69 1011.4
20260901030003 61 165 4.0 11.0 0.00 0.00 0.00 68 1011.5
20260901025618 61 167 4.0 11.0 0.00 0.00 0.00 68 1011.3
20260901024503 61 161 4.0 10.0 0.00 0.00 0.00 68 1011.6
20260901023818 62 163 4.0 10.0 0.00 0.00 0.00 67 1011.3
20260901022703 62 169 4.0 12.0 0.00 0.00 0.00 67 1011.5
20260901021803 62 166 3.0 9.0 0.00 0.00 0.00 68 1011.7
20260901020903 62 165 3.0 7.0 0.00 0.00 0.00 67 1011.6
20260901020006 62 163 3.0 8.0 0.00 0.00 0.00 67 1011.7
20260901015404 63 165 3.0 7.0 0.00 0.00 0.00 66 1011.6
20260901014503 63 153 3.0 10.0 0.00 0.00 0.00 66 1011.6
20260901013603 63 157 3.0 6.0 0.00 0.00 0.00 65 1012.1
20260901012703 64 156 3.0 6.0 0.00 0.00 0.00 64 1012.1
20260901011803 64 160 3.0 11.0 0.00 0.00 0.00 63 1012.2
20260901011118 64 168 3.0 11.0 0.00 0.00 0.00 63 1012.1
20260901010003 64 162 3.0 7.0 0.00 0.00 0.00 62 1012.1
20260901005403 64 170 2.0 8.0 0.00 0.00 0.00 63 1012.1
20260901004716 65 156 3.0 9.0 0.00 0.00 0.00 62 1012.0
20260901003818 65 155 2.0 9.0 0.00 0.00 0.00 62 1012.3
20260901002704 65 133 2.0 8.0 0.00 0.00 0.00 62 1012.3
20260901001803 65 158 2.0 5.0 0.00 0.00 0.00 61 1012.4
20260901001118 65 139 1.0 5.0 0.00 0.00 0.00 61 1012.4
20260901000003 65 108 2.0 5.0 0.00 0.00 0.00 60 1012.5
20260831235403 66 107 2.0 9.0 0.00 0.00 0.00 60 1012.4
20260831234718 66 138 2.0 9.0 0.00 0.00 0.00 58 1012.5
20260831233817 66 173 3.0 8.0 0.00 0.00 0.00 59 1012.6
20260831232703 67 171 2.0 8.0 0.00 0.00 0.00 55 1012.8
20260831231804 67 162 3.0 5.0 0.00 0.00 0.00 51 1012.5
20260831231117 67 168 4.0 8.0 0.00 0.00 0.00 54 1013.0
20260831230003 67 165 4.0 7.0 0.00 0.00 0.00 53 1013.0
20260831225403 67 171 4.0 8.0 0.00 0.00 0.00 51 1012.8
20260831224503 67 175 3.0 9.0 0.00 0.00 0.00 54 1012.9
20260831223603 67 175 4.0 8.0 0.00 0.00 0.00 53 1012.9
20260831222918 68 167 4.0 9.0 0.00 0.00 0.00 52 1013.4
20260831221803 68 177 3.0 7.0 0.00 0.00 0.00 52 1013.1
20260831220905 68 170 4.0 9.0 0.00 0.00 0.00 51 1013.4
20260831220219 68 171 4.0 9.0 0.00 0.00 0.00 50 1013.4
20260831215404 68 187 4.0 11.0 0.00 0.00 0.00 54 1013.3
20260831214504 67 177 3.0 8.0 0.00 0.00 0.00 55 1013.3